COSMOS 2251 DEB, 33762

Orbit data source: Space-Track

COSMOS 2251 DEB, 33762 is space debris in LEO originally from a launch on Wed, 16 Jun 1993 UTC launched from the Plesetsk Missile And Space Complex (PKMTR). The debris from Iridium 33, an American commercial communications satellite, has been tracked extensively since its accidental collision with the defunct Russian satellite Cosmos 2251 in 2009. This event, occurring at high speed in low Earth orbit (LEO), generated thousands of pieces of space debris, significantly increasing the risk of further collisions. The Iridium 33 debris cloud has impacted space traffic management and orbital debris mitigation strategies, making it a subject of ongoing study in space situational awareness.

Loading next visibility...
Identifier
33762, 1993-036K
Orbit
LEO
Country
Flag of CISCIS
Related business
Manufacturer
Unknown
Mission
Spacecraft
Bus & Motor
Unknown
Mass
Unknown
Launch date (UTC)
1993-06-16 (33 years ago)
Launch vehicle
Unknown
Launch site
Plesetsk Missile And Space Complex (PKMTR)
Object type
Payload
Rocket body
Debris
Shape & HBR
Unknown shape, 0.1 m
Radar Cross Section
Small (<0.1 m²)

Expand to show TLE details & history
Last TLE update: 13 hours ago

TLE from 13 hours ago
0 COSMOS 2251 DEB
1 33762U 93036K   26037.89748852  .00000188  00000-0  77262-4 0  9996
2 33762  74.0397 207.3558 0016366 260.2830 223.3016 14.33685166888527
Epoch: 2026-02-06T21:32Z
TLE epoch observation values (Epoch: 2026-02-06T21:32:23.008Z)
Latitude
53.44398°
Longitude
-95.3296°
Altitude
796.374 km
Speed
7.456 km/s
True Right ascension
00h 19m 10s
True Declination
53° 16' 49"
Sunlit
Object was in daylight at epoch
Visualization orbit readout
Latitude
Unknown
Longitude
Unknown
Altitude
Unknown
Speed
Unknown
Apparent Right ascension
Unknown
Apparent Declination
Unknown
Sunlit
N/A
Visualization observer readout
Local Sidereal Time
12:21:48
Azimuth
Unknown
Elevation
Unknown
Doppler factor
Unknown
Orbital elements
Apogee altitude
788.776 km
Perigee altitude
765.355 km
Semi-major axis
7,155.202 km
Eccentricity
0.00164
Inclination
74.0397°
RAAN
207.3558°
Arg. of periapsis
260.283°
True anomaly
223.17317°
Mean anomaly
223.3016°
Eccentric anomaly
223.23737°
Mean motion
3.586 °/min
Orbital period
100.39 mins
BSTAR
0.000077262
Loading maneuver chart data...
Computing Atmospheric mass density...

Documentation

Showing up to 5 results
|